[[{"header":{"parameterUnit":"m.s-1","parameterCategory":1,"la1":30.2991,"la2":30.254,"lo1":-89.0895,"lo2":-89.0444,"dy":0.0017,"dx":0.0017,"nx":28,"ny":28,"refTime":"2023-10-22T21:00:00:Z","depth":0,"parameterNumber":2,"parameterNumberName":"U-component_of_WINDS"},"data":[0,0,0,0,0,0,0,0,0,0,0,0,0,0,0,0,0,0,0,0,0,0,0,0,0,0,0,0,0,0,0,0,0,0,0,0,0,0,0,0,0,0,0,0,0,0,0,0,0,0,0,0,0,0,0,0,0,0,-2.9945,-2.9946,0,-3.0013,-3.0014,-3.0014,-2.9946,-2.9943,-2.994,-2.9938,-3.0009,-3.0013,-3.0018,0,0,0,0,0,0,0,0,0,0,0,0,0,-2.9758,-2.9762,-2.9945,-2.9946,-2.9947,-3.0013,-3.0014,-3.0015,-2.9946,-2.9943,-2.9939,-2.9936,-3.0008,-3.0013,-3.0018,0,0,0,0,0,0,0,0,0,0,0,0,0,-2.9834,-2.9763,-2.9945,-2.992,-2.9919,-3.0013,-3.0014,-3.0015,-2.9947,-2.9943,-2.9939,-2.9935,-3.0006,-3.0012,-3.0019,-3.0141,0,0,-3.0039,-3.0042,0,0,0,0,0,0,0,0,-2.983,-2.9841,-2.9923,-2.9922,-2.9921,-2.9967,-2.9974,-3.0057,-2.9948,-2.9936,-2.9938,-2.9933,-2.9998,-3.0005,-3.0027,-3.0144,-3.0147,-3.004,-3.0044,-3.0047,-3.0048,0,0,0,0,0,0,0,-2.9825,-2.9838,-2.9972,-2.9924,-2.9923,-2.9907,-2.9913,-2.9989,-2.9989,-2.9937,-2.9932,-2.9941,-2.9997,-3.0021,-3.0028,-3.0148,-3.004,-3.0045,-3.0049,-3.0052,-3.037,-3.0374,0,0,0,0,0,0,-2.9822,-2.9834,-2.997,-2.9974,-2.9864,-2.9913,-2.992,-2.9956,-2.9988,-2.9989,-2.9944,-2.9937,-3.0011,-3.0021,-3.003,-3.0176,-3.0047,-3.0053,-3.0057,-3.0365,-3.0371,-3.0376,0,0,0,0,0,0,-2.9818,-2.9834,-2.9967,-2.9902,-2.9918,-2.9921,-2.9961,-2.9959,-2.9983,-2.9994,-2.9994,-2.9969,-3.0009,-3.0021,-3.0114,-3.0177,-3.0056,-3.0062,-3.036,-3.0367,-3.0373,-3.0467,0,0,0,0,0,0,-2.9813,-2.9833,-2.9879,-2.9904,-2.9922,-3.0049,-2.9965,-2.9964,-2.9995,-2.9986,-3.0016,-3.0018,-3.0006,-3.0104,-3.0121,-3.0184,-3.0067,-3.0354,-3.0363,-3.0371,-3.0458,-3.0476,-3.0491,0,0,0,0,0,-2.9806,-2.9903,-2.9882,-2.9899,-2.9979,-3.0053,-3.0063,-3.0047,-3.0,-3.0046,-3.0053,-3.0017,-3.0168,-3.0114,-3.0132,-3.0199,-3.035,-3.0361,-3.037,-3.0451,-3.0473,-3.0491,0,0,0,0,0,0,-2.9886,-2.9906,-2.9883,-2.999,-3.002,-3.0041,-3.0099,-3.0071,-3.0115,-3.0106,-3.0085,-3.0093,-3.0191,-3.0204,-3.0144,-3.0319,-3.0251,-3.0265,-3.0307,-3.0327,-3.0344,-3.0339,-3.0072,0,0,0,0,0,-2.9916,-2.9974,-2.9988,-3.0082,-3.0098,-3.0096,-3.0127,-3.0113,-3.0144,-3.0156,-3.017,-3.0201,-3.0256,-3.0292,-3.0343,-3.046,-3.0466,-3.0515,-3.0531,-3.0545,-3.0557,-3.0621,-3.0643,-3.0409,-3.0408,-3.0408,0,0,-2.9979,-2.9997,-3.0034,-3.0098,-3.012,-3.0181,-3.0107,-3.0174,-3.0219,-3.0166,-3.0255,-3.0266,-3.03,-3.0406,-3.0453,-3.042,-3.0623,-3.0557,-3.0568,-3.0573,-3.0633,-3.0656,-3.0675,-3.0415,-3.0414,-3.0413,0,0,-3.0124,-3.0143,-3.0224,-3.0247,-3.028,-3.0279,-3.0298,-3.0323,-3.0329,-3.0417,-3.0379,-3.0433,-3.0527,-3.0553,-3.0579,-3.0735,-3.0704,-3.0753,-3.0839,-3.0901,-3.092,-3.0936,-3.0993,-3.1013,-3.0765,-3.0765,-3.0765,0,-3.0198,-3.0287,-3.0269,-3.0339,-3.0368,-3.0323,-3.0405,-3.0428,-3.0477,-3.0499,-3.0461,-3.0579,-3.0599,-3.071,-3.0748,-3.0771,-3.0793,-3.0749,-3.0919,-3.0935,-3.095,-3.1003,-3.1025,-3.0771,-3.077,-3.077,-3.0769,0,-3.0377,-3.044,-3.0501,-3.0548,-3.0585,-3.0661,-3.0654,-3.0694,-3.0677,-3.0679,-3.077,-3.0793,-3.0847,-3.0873,-3.0857,-3.0983,-3.0961,-3.0921,-3.0853,-3.0978,-3.1028,-3.1048,-3.0779,-3.0777,-3.0775,-3.0774,0,0,-3.0574,-3.0611,-3.0633,-3.0655,-3.0689,-3.0738,-3.0812,-3.0865,-3.09,-3.0935,-3.0998,-3.1079,-3.1043,-3.1072,-3.1059,-3.1113,-3.1237,-3.1067,-3.1067,-3.1098,-3.1378,-3.1408,-3.1432,-3.1216,-3.122,-3.1223,-3.1375,0,-3.072,-3.0848,-3.0834,-3.0956,-3.1014,-3.0973,-3.1038,-3.1066,-3.1071,-3.1122,-3.1127,-3.1186,-3.1133,-3.115,-3.1203,-3.1211,-3.1293,-3.12,-3.1275,-3.1278,-3.1267,-3.1458,-3.1489,-3.1632,-3.1395,-3.1398,-3.14,0,-3.0908,-3.095,-3.1078,-3.1104,-3.1128,-3.1186,-3.1234,-3.1283,-3.1315,-3.1315,-3.1349,-3.1326,-3.1402,-3.1332,-3.1437,-3.1374,-3.1404,-3.1413,-3.1418,-3.1424,-3.1346,-3.147,-3.1677,-3.1698,-3.1431,-3.1428,-3.1426,0,-3.1039,-3.1128,-3.1216,-3.1236,-3.1268,-3.131,-3.1326,-3.1354,-3.1387,-3.143,-3.1451,-3.1502,-3.1531,-3.1571,-3.1564,-3.1514,-3.1671,-3.16,-3.1673,-3.1674,-3.1708,-3.1706,-3.1923,-3.1728,-3.1727,-3.1727,-3.1726,0,-3.1204,-3.1284,-3.1275,-3.133,-3.1419,-3.1402,-3.1491,-3.1502,-3.1527,-3.1584,-3.1551,-3.1605,-3.1591,-3.1645,-3.164,-3.1728,-3.1741,-3.1743,-3.1741,-3.1746,-3.1746,-3.1766,-3.1756,-3.1732,-3.1731,-3.173,-3.1729,0,-3.1365,-3.1362,-3.1456,-3.1479,-3.1487,-3.1552,-3.1572,-3.1624,-3.1626,-3.1698,-3.1714,-3.1719,-3.178,-3.1777,-3.1847,-3.1843,-3.1952,-3.1938,-3.1941,-3.1938,-3.2011,-3.2004,-3.2248,-3.228,-3.2064,-3.2066,-3.2068,0,-3.1471,-3.1531,-3.1561,-3.1596,-3.1615,-3.1672,-3.1706,-3.1692,-3.1729,-3.1771,-3.1818,-3.1877,-3.1923,-3.2024,-3.2034,-3.2087,-3.2074,-3.2156,-3.2082,-3.2086,-3.2076,-3.2073,-3.2079,-3.2171,-3.2173,-3.2175,-3.2177,0,-3.1658,-3.1654,-3.1703,-3.1753,-3.1795,-3.1833,-3.1868,-3.1899,-3.189,-3.1933,-3.1996,-3.2032,-3.2103,-3.2162,-3.2213,-3.223,-3.2203,-3.22,-3.222,-3.2226,-3.2225,-3.2227,-3.1981,-3.2195,-3.2193,-3.2192,-3.2191,-3.219,-3.1795,-3.1847,-3.1877,-3.1933,-3.1958,-3.1992,-3.2042,-3.2051,-3.2103,-3.2159,-3.2149,-3.2219,-3.2251,-3.2317,-3.2339,-3.2395,-3.2366,-3.2394,-3.2402,-3.2409,-3.2418,-3.2217,-3.2404,-3.2404,-3.2403,-3.2403,-3.2403,0,-3.1981,-3.1998,-3.205,-3.2101,-3.2146,-3.2115,-3.2153,-3.2193,-3.2255,-3.2287,-3.2333,-3.2406,-3.2463,-3.2478,-3.2533,-3.2575,-3.2564,-3.259,-3.2587,-3.2592,-3.244,-3.2418,-3.2598,-3.2598,-3.2598,-3.2598,-3.2598,-3.2598,-3.2083,-3.217,-3.217,-3.2269,-3.2286,-3.2354,-3.2379,-3.241,-3.2435,-3.2518,-3.2565,-3.2574,-3.26,-3.2657,-3.2709,-3.2712,-3.2734,-3.2765,-3.2764,-3.2622,-3.2602,-3.2583,-3.2562,-3.277,-3.277,-3.291,-3.2911,-3.2912]},{"header":{"parameterUnit":"m.s-1","parameterCategory":1,"la1":30.2991,"la2":30.254,"lo1":-89.0895,"lo2":-89.0444,"dy":0.0017,"dx":0.0017,"nx":28,"ny":28,"refTime":"2023-10-22T21:00:00:Z","depth":0,"parameterNumber":3,"parameterNumberName":"V-component_of_WINDS"},"data":[0,0,0,0,0,0,0,0,0,0,0,0,0,0,0,0,0,0,0,0,0,0,0,0,0,0,0,0,0,0,0,0,0,0,0,0,0,0,0,0,0,0,0,0,0,0,0,0,0,0,0,0,0,0,0,0,0,0,0.4641,0.4642,0,0.4728,0.4729,0.473,0.4742,0.4741,0.474,0.474,0.483,0.4833,0.4836,0,0,0,0,0,0,0,0,0,0,0,0,0,0.4489,0.4492,0.4641,0.4642,0.4644,0.4728,0.4729,0.4731,0.4742,0.4741,0.474,0.4739,0.4829,0.4833,0.4837,0,0,0,0,0,0,0,0,0,0,0,0,0,0.4563,0.4493,0.4641,0.4659,0.4662,0.4728,0.4729,0.4731,0.4742,0.4741,0.474,0.4739,0.4828,0.4833,0.4837,0.4891,0,0,0.4852,0.4854,0,0,0,0,0,0,0,0,0.4559,0.4569,0.4656,0.4658,0.4661,0.4723,0.4709,0.4785,0.4743,0.4712,0.474,0.4738,0.4796,0.4803,0.4822,0.4896,0.49,0.4852,0.4855,0.4857,0.4859,0,0,0,0,0,0,0,0.4554,0.4565,0.4676,0.4657,0.466,0.4665,0.4674,0.4723,0.476,0.4714,0.4715,0.4726,0.4797,0.4817,0.4824,0.4901,0.4852,0.4856,0.4859,0.4861,0.5027,0.5029,0,0,0,0,0,0,0.4545,0.4561,0.4673,0.4678,0.4606,0.4668,0.4679,0.4704,0.4759,0.4766,0.4727,0.4726,0.481,0.4819,0.4827,0.4897,0.4857,0.4862,0.4864,0.5026,0.5028,0.5029,0,0,0,0,0,0,0.4542,0.4555,0.467,0.462,0.4635,0.4672,0.4701,0.4707,0.4727,0.4768,0.4775,0.4741,0.4809,0.4821,0.4876,0.4901,0.4864,0.4868,0.5024,0.5027,0.5029,0.5036,0,0,0,0,0,0,0.4537,0.4554,0.4574,0.462,0.4638,0.4716,0.4703,0.4709,0.4735,0.4735,0.4783,0.479,0.4809,0.4869,0.4881,0.4907,0.4872,0.5022,0.5025,0.5028,0.5034,0.5038,0.5042,0,0,0,0,0,0.4532,0.4572,0.4575,0.4588,0.4663,0.4717,0.4727,0.4748,0.4737,0.4759,0.4785,0.4789,0.4896,0.4875,0.4888,0.4915,0.5021,0.5024,0.5028,0.5032,0.5037,0.5042,0,0,0,0,0,0,0.4527,0.4578,0.4582,0.4638,0.4673,0.4719,0.4746,0.4752,0.4792,0.479,0.4814,0.4825,0.488,0.4903,0.4879,0.4973,0.4957,0.4964,0.4956,0.4961,0.4966,0.496,0.4876,0,0,0,0,0,0.4532,0.4571,0.4614,0.4659,0.4677,0.4709,0.4733,0.4746,0.4783,0.4799,0.4829,0.4866,0.4909,0.4936,0.4977,0.5037,0.5049,0.5062,0.5066,0.507,0.5076,0.5112,0.512,0.5041,0.5041,0.5041,0,0,0.4544,0.4577,0.4599,0.4659,0.4688,0.4729,0.4721,0.4764,0.4795,0.4805,0.486,0.4884,0.4927,0.4986,0.5013,0.5007,0.51,0.5074,0.5076,0.5081,0.5117,0.5124,0.5131,0.5043,0.5043,0.5043,0,0,0.4587,0.4614,0.4656,0.4686,0.473,0.4751,0.4761,0.4807,0.4823,0.4879,0.4888,0.4926,0.4997,0.5029,0.5054,0.5112,0.5118,0.5124,0.5147,0.5182,0.5189,0.5194,0.5218,0.5225,0.513,0.513,0.513,0,0.4596,0.4657,0.4677,0.4721,0.4748,0.4759,0.4804,0.4832,0.4887,0.4906,0.4898,0.499,0.502,0.5088,0.5102,0.5121,0.5135,0.512,0.5186,0.5192,0.5197,0.522,0.5228,0.513,0.513,0.513,0.513,0,0.4668,0.471,0.4739,0.4793,0.4823,0.4867,0.4896,0.4924,0.4935,0.4958,0.5016,0.5052,0.5102,0.5119,0.5129,0.5189,0.5184,0.518,0.5166,0.5205,0.5227,0.5236,0.5132,0.5131,0.5131,0.5131,0,0,0.4709,0.4775,0.4786,0.4812,0.4862,0.4896,0.4941,0.499,0.5016,0.5054,0.5094,0.5156,0.5153,0.5182,0.5197,0.5227,0.5275,0.522,0.5222,0.5232,0.5346,0.5351,0.536,0.5278,0.528,0.5281,0.5344,0,0.476,0.484,0.4861,0.493,0.4972,0.4984,0.5024,0.506,0.5083,0.5123,0.5148,0.5193,0.5184,0.5203,0.5233,0.5262,0.5298,0.5258,0.5318,0.532,0.5309,0.5371,0.5375,0.5432,0.5352,0.5353,0.5354,0,0.4829,0.487,0.4943,0.4991,0.5009,0.5044,0.5093,0.5129,0.5172,0.5187,0.522,0.5232,0.5282,0.5264,0.5335,0.5307,0.5333,0.5351,0.5354,0.5362,0.5341,0.5383,0.5451,0.5461,0.5368,0.5366,0.5366,0,0.4856,0.4928,0.4983,0.5004,0.506,0.5085,0.511,0.5151,0.518,0.5223,0.5242,0.529,0.5316,0.5354,0.5379,0.5363,0.5449,0.5432,0.5465,0.5465,0.5484,0.5483,0.5559,0.5497,0.5496,0.5496,0.5496,0,0.4911,0.4956,0.4996,0.5029,0.5081,0.5106,0.5157,0.5182,0.5219,0.5259,0.5272,0.531,0.534,0.5383,0.5403,0.546,0.5471,0.5487,0.5492,0.5487,0.5485,0.5506,0.5503,0.5499,0.5498,0.5498,0.5497,0,0.495,0.4977,0.5038,0.5087,0.51,0.5137,0.518,0.5214,0.5237,0.5288,0.5302,0.534,0.5391,0.542,0.5483,0.5497,0.5562,0.5564,0.5548,0.5551,0.5583,0.5581,0.5677,0.5692,0.5617,0.5618,0.5618,0,0.4984,0.502,0.5073,0.5101,0.5126,0.517,0.5201,0.5226,0.5258,0.531,0.5339,0.539,0.5433,0.5515,0.5549,0.5598,0.5603,0.5634,0.5611,0.5606,0.5607,0.5606,0.5611,0.5638,0.5639,0.5639,0.564,0,0.5044,0.5056,0.5099,0.5148,0.5183,0.5223,0.5262,0.5284,0.5317,0.5352,0.5404,0.5438,0.5504,0.5556,0.5609,0.5636,0.5645,0.5647,0.5658,0.5654,0.5644,0.5653,0.5561,0.5645,0.5644,0.5644,0.5644,0.5643,0.5084,0.5117,0.516,0.5208,0.5241,0.5278,0.5313,0.5342,0.5386,0.5442,0.5454,0.5511,0.5555,0.5627,0.5656,0.5701,0.5696,0.5711,0.5715,0.5719,0.5722,0.5635,0.571,0.571,0.571,0.571,0.571,0,0.5146,0.5175,0.5219,0.5274,0.5313,0.5316,0.5361,0.5393,0.5442,0.5482,0.5525,0.5587,0.5638,0.5677,0.573,0.5759,0.5765,0.5773,0.5772,0.5779,0.5722,0.5708,0.5768,0.5768,0.5768,0.5767,0.5767,0.5767,0.5184,0.5241,0.5259,0.5334,0.5363,0.5418,0.5443,0.5478,0.5511,0.558,0.5622,0.5647,0.5688,0.5744,0.5793,0.5803,0.5823,0.5831,0.5842,0.5788,0.5782,0.5777,0.5764,0.5834,0.5835,0.5896,0.5897,0.5897]}]]